• In Russia
  • List of Countries
  • For 7 days
  • Water Temperature
  • Satellite Maps
  • Weather Map
  • Weather Widgets
  • user-avatar
    Login

    Hourly Weather Ashtarak

    Today, 23 October, Monday

    Time Temperature Precipitation Wind Pressure Humidity
    00:00 +9°C° 0 mm 2 mps 655 mmHg 43%
    01:00 +9°C° 0 mm 2 mps 655 mmHg 44%
    02:00 +8°C° 0 mm 2 mps 655 mmHg 46%
    03:00 +8°C° 0 mm 2 mps 654 mmHg 48%
    04:00 +8°C° 0 mm 2 mps 655 mmHg 49%
    05:00 +8°C° 0 mm 2 mps 655 mmHg 51%
    06:00 +8°C° 0 mm 1 mps 655 mmHg 53%
    07:00 +9°C° 0 mm 2 mps 656 mmHg 48%
    08:00 +12°C° 0 mm 2 mps 656 mmHg 44%
    09:00 +14°C° 0 mm 2 mps 657 mmHg 39%
    10:00 +15°C° 0 mm 2 mps 657 mmHg 37%
    11:00 +16°C° 0 mm 2 mps 657 mmHg 35%
    12:00 +17°C° 0 mm 3 mps 658 mmHg 32%
    13:00 +17°C° 0 mm 3 mps 657 mmHg 32%
    14:00 +17°C° 0 mm 3 mps 657 mmHg 31%
    15:00 +18°C° 0 mm 3 mps 657 mmHg 30%
    16:00 +16°C° 0 mm 3 mps 657 mmHg 34%
    17:00 +14°C° 0 mm 2 mps 657 mmHg 38%
    18:00 +12°C° 0 mm 2 mps 657 mmHg 42%
    19:00 +12°C° 0 mm 2 mps 657 mmHg 43%
    20:00 +11°C° 0 mm 1 mps 657 mmHg 43%
    21:00 +11°C° 0 mm 1 mps 658 mmHg 44%
    22:00 +11°C° 0 mm 1 mps 658 mmHg 45%
    23:00 +10°C° 0 mm 1 mps 658 mmHg 46%

    Tomorrow, 24 October, Tuesday

    Time Temperature Precipitation Wind Pressure Humidity
    00:00 +10°C° 0 mm 1 mps 658 mmHg 47%
    01:00 +10°C° 0 mm 1 mps 658 mmHg 47%
    02:00 +9°C° 0 mm 1 mps 658 mmHg 48%
    03:00 +9°C° 0 mm 1 mps 658 mmHg 49%
    04:00 +9°C° 0 mm 1 mps 658 mmHg 48%
    05:00 +9°C° 0 mm 1 mps 658 mmHg 48%
    06:00 +9°C° 0 mm 1 mps 658 mmHg 48%
    07:00 +10°C° 0 mm 2 mps 658 mmHg 43%
    08:00 +13°C° 0 mm 2 mps 659 mmHg 38%
    09:00 +15°C° 0 mm 2 mps 660 mmHg 33%
    10:00 +16°C° 0 mm 3 mps 660 mmHg 30%
    11:00 +17°C° 0 mm 3 mps 660 mmHg 28%
    12:00 +18°C° 0 mm 4 mps 660 mmHg 25%
    13:00 +18°C° 0 mm 4 mps 659 mmHg 26%
    14:00 +18°C° 0 mm 4 mps 659 mmHg 26%
    15:00 +18°C° 0 mm 4 mps 659 mmHg 26%
    16:00 +17°C° 0 mm 3 mps 659 mmHg 30%
    17:00 +14°C° 0 mm 3 mps 659 mmHg 34%
    18:00 +13°C° 0 mm 2 mps 659 mmHg 38%
    19:00 +13°C° 0 mm 2 mps 659 mmHg 38%
    20:00 +12°C° 0 mm 2 mps 659 mmHg 37%
    21:00 +12°C° 0 mm 2 mps 659 mmHg 37%
    22:00 +12°C° 0 mm 2 mps 659 mmHg 38%
    23:00 +12°C° 0 mm 2 mps 660 mmHg 39%

    Day after tomorrow, 25 October, Wednesday

    Time Temperature Precipitation Wind Pressure Humidity
    00:00 +10°C° 0 mm 2 mps 660 mmHg 40%
    01:00 +10°C° 0 mm 2 mps 660 mmHg 40%
    02:00 +10°C° 0 mm 2 mps 660 mmHg 41%
    03:00 +10°C° 0 mm 2 mps 660 mmHg 42%
    04:00 +10°C° 0 mm 2 mps 660 mmHg 42%
    05:00 +10°C° 0 mm 2 mps 660 mmHg 43%
    06:00 +9°C° 0 mm 2 mps 660 mmHg 43%
    07:00 +12°C° 0 mm 2 mps 660 mmHg 40%
    08:00 +14°C° 0 mm 2 mps 661 mmHg 36%
    09:00 +16°C° 0 mm 3 mps 662 mmHg 32%
    10:00 +18°C° 0 mm 3 mps 662 mmHg 30%
    11:00 +19°C° 0 mm 3 mps 661 mmHg 29%
    12:00 +20°C° 0 mm 4 mps 661 mmHg 27%
    13:00 +20°C° 0 mm 4 mps 661 mmHg 27%
    14:00 +20°C° 0 mm 4 mps 661 mmHg 27%
    15:00 +20°C° 0 mm 4 mps 661 mmHg 27%
    16:00 +18°C° 0 mm 3 mps 660 mmHg 30%
    17:00 +17°C° 0 mm 3 mps 660 mmHg 34%
    18:00 +15°C° 0 mm 2 mps 660 mmHg 37%
    19:00 +14°C° 0 mm 2 mps 660 mmHg 38%
    20:00 +14°C° 0 mm 2 mps 660 mmHg 38%
    21:00 +14°C° 0 mm 2 mps 660 mmHg 38%
    22:00 +13°C° 0 mm 2 mps 660 mmHg 39%
    23:00 +13°C° 0 mm 2 mps 660 mmHg 39%

    26 October, Thursday

    Time Temperature Precipitation Wind Pressure Humidity
    00:00 +13°C° 0 mm 2 mps 660 mmHg 39%
    01:00 +13°C° 0 mm 2 mps 660 mmHg 40%
    02:00 +12°C° 0 mm 2 mps 659 mmHg 40%
    03:00 +12°C° 0 mm 2 mps 659 mmHg 40%
    04:00 +12°C° 0 mm 2 mps 659 mmHg 40%
    05:00 +12°C° 0 mm 2 mps 659 mmHg 40%
    06:00 +10°C° 0 mm 2 mps 659 mmHg 40%
    07:00 +13°C° 0 mm 2 mps 659 mmHg 37%
    08:00 +16°C° 0 mm 2 mps 660 mmHg 33%
    09:00 +18°C° 0 mm 3 mps 660 mmHg 29%
    10:00 +19°C° 0 mm 3 mps 660 mmHg 27%
    11:00 +20°C° 0 mm 4 mps 660 mmHg 25%
    12:00 +21°C° 0 mm 4 mps 660 mmHg 23%
    13:00 +21°C° 0 mm 4 mps 659 mmHg 23%
    14:00 +21°C° 0 mm 4 mps 659 mmHg 22%
    15:00 +21°C° 0 mm 4 mps 659 mmHg 22%
    16:00 +19°C° 0 mm 4 mps 658 mmHg 25%
    17:00 +17°C° 0 mm 3 mps 658 mmHg 29%
    18:00 +15°C° 0 mm 2 mps 658 mmHg 32%
    19:00 +15°C° 0 mm 2 mps 658 mmHg 32%
    20:00 +14°C° 0 mm 2 mps 658 mmHg 33%
    21:00 +14°C° 0 mm 1 mps 658 mmHg 33%
    22:00 +13°C° 0 mm 1 mps 658 mmHg 35%
    23:00 +13°C° 0 mm 2 mps 658 mmHg 36%

    27 October, Friday

    Time Temperature Precipitation Wind Pressure Humidity
    00:00 +12°C° 0 mm 2 mps 658 mmHg 38%
    01:00 +12°C° 0 mm 2 mps 658 mmHg 41%
    02:00 +12°C° 0 mm 2 mps 658 mmHg 45%
    03:00 +11°C° 0 mm 1 mps 658 mmHg 49%
    04:00 +11°C° 0 mm 1 mps 658 mmHg 52%
    05:00 +11°C° 0 mm 1 mps 658 mmHg 54%
    06:00 +10°C° 0 mm 1 mps 658 mmHg 57%
    07:00 +12°C° 0 mm 2 mps 658 mmHg 54%
    08:00 +14°C° 0 mm 2 mps 659 mmHg 51%
    09:00 +15°C° 0 mm 2 mps 660 mmHg 48%
    10:00 +16°C° 0 mm 2 mps 659 mmHg 44%
    11:00 +17°C° 0 mm 3 mps 659 mmHg 41%
    12:00 +18°C° 0 mm 3 mps 659 mmHg 37%
    13:00 +18°C° 0 mm 3 mps 659 mmHg 36%
    14:00 +19°C° 0 mm 3 mps 659 mmHg 34%
    15:00 +19°C° 0 mm 3 mps 658 mmHg 33%
    16:00 +17°C° 0 mm 3 mps 658 mmHg 38%
    17:00 +15°C° 0 mm 2 mps 658 mmHg 42%
    18:00 +14°C° 0 mm 1 mps 657 mmHg 46%
    19:00 +13°C° 0 mm 2 mps 657 mmHg 49%
    20:00 +13°C° 0 mm 2 mps 657 mmHg 51%
    21:00 +12°C° 0 mm 2 mps 657 mmHg 53%
    22:00 +12°C° 0 mm 2 mps 657 mmHg 53%
    23:00 +11°C° 0 mm 1 mps 657 mmHg 54%

    28 October, Saturday

    Time Temperature Precipitation Wind Pressure Humidity
    00:00 +11°C° 0 mm 1 mps 657 mmHg 54%
    01:00 +11°C° 0 mm 1 mps 657 mmHg 51%
    02:00 +11°C° 0 mm 1 mps 657 mmHg 48%
    03:00 +11°C° 0 mm 1 mps 657 mmHg 45%
    04:00 +10°C° 0 mm 2 mps 657 mmHg 43%
    05:00 +9°C° 0 mm 2 mps 657 mmHg 41%
    06:00 +9°C° 0 mm 2 mps 657 mmHg 40%
    07:00 +12°C° 0 mm 2 mps 657 mmHg 37%
    08:00 +13°C° 0 mm 3 mps 658 mmHg 34%
    09:00 +16°C° 0 mm 3 mps 658 mmHg 31%
    10:00 +17°C° 0 mm 4 mps 658 mmHg 31%
    11:00 +17°C° 0 mm 5 mps 658 mmHg 31%
    12:00 +19°C° 0 mm 6 mps 658 mmHg 31%
    13:00 +17°C° 0.2 mm 5 mps 657 mmHg 38%
    14:00 +16°C° 0.2 mm 5 mps 656 mmHg 46%
    15:00 +15°C° 0.2 mm 4 mps 656 mmHg 53%
    16:00 +15°C° 0.3 mm 4 mps 656 mmHg 59%
    17:00 +14°C° 0.3 mm 3 mps 656 mmHg 64%
    18:00 +13°C° 0.3 mm 3 mps 656 mmHg 69%
    19:00 +13°C° 0.2 mm 3 mps 656 mmHg 70%
    20:00 +13°C° 0.2 mm 3 mps 656 mmHg 70%
    21:00 +13°C° 0.2 mm 3 mps 656 mmHg 71%
    22:00 +13°C° 0.2 mm 3 mps 655 mmHg 72%
    23:00 +13°C° 0.2 mm 3 mps 655 mmHg 73%

    29 October, Sunday

    Time Temperature Precipitation Wind Pressure Humidity
    00:00 +12°C° 0.2 mm 3 mps 655 mmHg 73%
    01:00 +12°C° 0.1 mm 3 mps 655 mmHg 74%
    02:00 +12°C° 0.1 mm 3 mps 655 mmHg 74%
    03:00 +11°C° 0.1 mm 3 mps 655 mmHg 74%
    04:00 +11°C° 0.1 mm 3 mps 655 mmHg 75%
    05:00 +11°C° 0.1 mm 3 mps 655 mmHg 76%
    06:00 +10°C° 0.1 mm 3 mps 655 mmHg 77%
    07:00 +11°C° 0.1 mm 3 mps 655 mmHg 72%
    08:00 +12°C° 0.1 mm 3 mps 656 mmHg 67%
    09:00 +13°C° 0.1 mm 3 mps 656 mmHg 61%
    10:00 +14°C° 0 mm 3 mps 656 mmHg 57%
    11:00 +15°C° 0 mm 4 mps 656 mmHg 52%
    12:00 +17°C° 0 mm 4 mps 656 mmHg 48%
    13:00 +17°C° 0 mm 4 mps 655 mmHg 46%
    14:00 +18°C° 0 mm 4 mps 655 mmHg 45%
    15:00 +18°C° 0 mm 4 mps 655 mmHg 43%
    16:00 +15°C° 0 mm 4 mps 655 mmHg 47%
    17:00 +14°C° 0 mm 3 mps 654 mmHg 51%
    18:00 +12°C° 0 mm 3 mps 654 mmHg 56%
    19:00 +12°C° 0 mm 3 mps 654 mmHg 56%
    20:00 +13°C° 0 mm 2 mps 654 mmHg 56%
    21:00 +12°C° 0 mm 2 mps 655 mmHg 56%
    22:00 +12°C° 0 mm 2 mps 654 mmHg 58%
    23:00 +12°C° 0 mm 2 mps 654 mmHg 59%
    Show more